This demonstration page uses our WeatherBlox Daily Observations layout. Learn more.

Hourly Observations for January 22, 2020

Temp ( °F °C ) Dew Point ( °F °C ) Humidity (%) Winds ( mph kmh ) Pressure ( in mb ) Visibility ( mi km ) Precip ( " mm )
12:54 am 00:54 Cloudy with Light Rain 34 1.1 30 -1.1 85 85 S 17 28 30.04 1017 6 9.65604 0.05 1.27
1:42 am 01:42 Cloudy with Light Snow 34 1.1 31 -0.6 89 89 S 16 26 30.02 1017 5 8.0467 0.04 1.016
1:54 am 01:54 Cloudy with Light Rain 34 1.1 31 -0.6 89 89 S 17 28 30.01 1016 4 6.43736 0.04 1.016
2:24 am 02:24 Cloudy with Light Snow 34 1.1 31 -0.6 89 89 S 17 28 30.01 1016 5 8.0467 0.02 0.508
2:54 am 02:54 Cloudy with Light Rain 35 1.7 32 0 89 89 S 17 28 29.98 1015 7 11.26538 0.04 1.016
3:24 am 03:24 Cloudy with Light Rain 35 1.7 32 0 89 89 S 21 33 29.98 1015 9 14.48406 0.01 0.254
3:47 am 03:47 Cloudy with Light Rain 35 1.7 32 0 89 89 S 21 33 29.97 1015 10 16.0934 0.02 0.508
3:54 am 03:54 Cloudy with Light Rain 35 1.7 32 0 89 89 S 22 35 29.95 1014 10 16.0934 0.02 0.508
4:43 am 04:43 Cloudy with Light Rain 35 1.7 32 0 89 89 S 20 31 29.96 1015 10 16.0934 0.01 0.254
4:54 am 04:54 Cloudy with Light Rain 35 1.7 32 0 89 89 S 21 33 29.94 1014 10 16.0934 0.01 0.254
5:54 am 05:54 Cloudy with Light Snow 34 1.1 31 -0.6 89 89 S 15 24 29.93 1014 4 6.43736 0.02 0.508
6:54 am 06:54 Cloudy with Light Snow 34 1.1 31 -0.6 89 89 S 14 22 29.93 1013 3 4.82802 0.03 0.762
7:39 am 07:39 Cloudy with Light Snow 34 1.1 31 -0.6 89 89 S 13 20 29.94 1014 2.5 4.02335 0.03 0.762
7:54 am 07:54 Cloudy with Light Snow 33 0.6 31 -0.6 92 92 S 12 19 29.92 1013 2 3.21868 0.04 1.016
8:10 am 08:10 Cloudy with Light Snow 33 0.6 31 -0.6 92 92 S 10 17 29.95 1014 1 1.60934 0.01 0.254
8:44 am 08:44 Cloudy with Light Snow 33 0.6 31 -0.6 92 92 S 9 15 29.95 1014 2 3.21868 0.03 0.762
8:54 am 08:54 Cloudy with Light Snow 33 0.6 31 -0.6 92 92 S 9 15 29.92 1013 2 3.21868 0.04 1.016
9:06 am 09:06 Cloudy with Light Snow 33 0.6 31 -0.6 92 92 S 10 17 29.95 1014 3 4.82802 0.001 0.001
9:21 am 09:21 Cloudy with Light Snow 33 0.6 31 -0.6 92 92 S 9 15 29.94 1014 2.5 4.02335 0.01 0.254
9:50 am 09:50 Cloudy with Light Snow 34 1 32 0 93 93 S 10 17 29.93 1014 3 4.82802 0.02 0.508
9:54 am 09:54 Cloudy with Light Snow 34 1.1 32 0 92 92 S 13 20 29.91 1013 3 4.82802 0.03 0.762
10:54 am 10:54 Cloudy with Light Snow 34 1.1 32 0 92 92 S 14 22 29.9 1012 5 8.0467 0.01 0.254
11:19 am 11:19 Cloudy with Light Snow 34 1.1 32 0 92 92 S 13 20 29.91 1013 6 9.65604 0.01 0.254
11:54 am 11:54 Cloudy with Light Rain 35 1.7 32 0 89 89 S 13 20 29.87 1011 10 16.0934 0.02 0.508
12:54 pm 12:54 Cloudy 35 1.7 32 0 89 89 S 10 17 29.84 1010 10 16.0934 0.001 0.001
1:54 pm 13:54 Cloudy 35 1.7 32 0 89 89 S 9 15 29.83 1010 10 16.0934 0.001 0.001
2:54 pm 14:54 Cloudy 35 1.7 32 0 89 89 S 9 15 29.83 1010 10 16.0934 0 0
3:54 pm 15:54 Cloudy with Mist and Fog 35 1.7 33 0.6 93 93 SSW 6 9 29.84 1011 2.5 4.02335 0 0
4:08 pm 16:08 Cloudy with Mist and Fog 34 1.1 33 0.6 97 97 S 6 9 29.87 1012 4 6.43736 0 0
4:28 pm 16:28 Cloudy with Mist and Fog 34 1.1 32 0 92 92 S 5 7 29.86 1011 2 3.21868 0 0
4:37 pm 16:37 Cloudy with Mist and Fog 34 1.1 32 0 92 92 S 6 9 29.86 1011 1.5 2.41401 0 0
4:54 pm 16:54 Cloudy with Mist and Fog 34 1.1 32 0 92 92 S 6 9 29.84 1011 1.25 2.011675 0 0
5:23 pm 17:23 Cloudy with Mist and Fog 34 1.1 33 0.6 97 97 S 5 7 29.87 1012 0.75 1.207005 0 0
5:39 pm 17:39 Cloudy with Mist and Fog 34 1.1 33 0.6 97 97 SSE 3 6 29.88 1012 1 1.60934 0 0
5:54 pm 17:54 Cloudy with Mist and Fog 34 1.1 33 0.6 97 97 SSE 5 7 29.86 1011 0.75 1.207005 0 0
6:54 pm 18:54 Mostly Cloudy with Fog 34 1.1 33 0.6 97 97 SSE 3 6 29.88 1012 0.5 0.80467 0 0
7:12 pm 19:12 Mostly Cloudy with Fog 34 1.1 33 0.6 97 97 S 3 6 29.9 1013 0.25 0.402335 0 0
7:54 pm 19:54 Mostly Cloudy with Fog 34 1.1 33 0.6 97 97 S 3 6 29.89 1012 0.25 0.402335 0 0
8:09 pm 20:09 Mostly Cloudy with Light Rain 34 1.1 33 0.6 97 97 S 3 6 29.92 1013 0.5 0.80467 0.001 0.001
8:54 pm 20:54 Mostly Cloudy with Light Rain 34 1.1 33 0.6 97 97 S 3 6 29.9 1013 0.5 0.80467 0.01 0.254
9:38 pm 21:38 Cloudy with Light Rain 34 1.1 33 0.6 97 97 Calm 29.92 1013 1.25 2.011675 0.02 0.508
9:49 pm 21:49 Cloudy with Light Rain 34 1 34 1 100 100 Calm 29.92 1013 2.5 4.02335 0.02 0.508
9:54 pm 21:54 Cloudy with Light Rain 34 1.1 33 0.6 97 97 Calm 29.9 1013 3 4.82802 0.02 0.508
10:38 pm 22:38 Cloudy with Light Rain 34 1.1 33 0.6 97 97 Calm 29.93 1014 4 6.43736 0.01 0.254
10:54 pm 22:54 Cloudy with Light Rain 34 1.1 33 0.6 97 97 Calm 29.91 1013 3 4.82802 0.01 0.254
11:36 pm 23:36 Cloudy with Light Rain 34 1.1 33 0.6 97 97 Calm 29.93 1014 4 6.43736 0.01 0.254
11:54 pm 23:54 Cloudy with Light Rain 34 1.1 33 0.6 97 97 Calm 29.91 1013 4 6.43736 0.01 0.254

Powered by AerisWeather